Weather in Bol'shaya Dragunskaya

Russia / Oryol Oblast     52°41′38″N   35°45′03″E
temp.,
°C
wind,
m/s
gust,
m/s
humid.,
%
clouds,
%
prec.,
mm/h
press.,
hPa
HPBL,
m
14 april, wed
wed1400:00+12sse3108271 0.0 1020334
03:00+9s37937 0.0 1020156
06:00+8sse3594100 0.0 102096
09:00+11s357620 0.0 1020469
12:00+15sse356199 0.0 10181145
15:00+16sse235798 0.2 10171139
18:00+15n0064100 0.7 1016100
21:00+12nne3477100 1.5 101655
15 april, thu
thu1500:00+11nne1179100 0.3 101518
03:00+11e2277100 0.3 101526
06:00+10e3471100 0.0 101472
09:00+13ese4861100 0.0 1014522
12:00+15ese6755100 0.0 10141275
15:00+16ese685095 0.4 10131789
18:00+13e61162100 0.5 1012449
21:00+11ene2489100 3.1 1013135
16 april, fri
fri1600:00+9se348521 0.1 101351
03:00+9ese348571 0.1 101451
06:00+8e2392100 1.1 101451
09:00+11ese4881100 1.9 1015529
12:00+14ese686390 1.3 10151367
15:00+16se694971 1.9 10152132
18:00+14sse366081 0.0 1016233
21:00+10sw347363 0.0 101891
17 april, sat
sat1700:00+7nw228265 0.0 102016
03:00+8nnw2283100 0.0 101913
06:00+7n228889 0.0 102019
09:00+10ne6990100 0.1 1020540
12:00+12ene61075100 0.3 10201078
15:00+14ene7116792 0.7 10201250
18:00+13ene914647 0.1 1020905
21:00+11ene8155882 0.1 1021825
18 april, sun
sun1800:00+9ene6126498 0.0 1022443
03:00+8e5976100 0.1 1022461
06:00+7e479065 0.2 1024413
09:00+9ese457192 0.3 1025941
12:00+11e4659100 0.0 10251552
15:00+10e4669100 0.2 1025915
18:00+9ene5676100 0.2 1026834
21:00+7e61087100 0.2 1027738